Location: Il Ritiro
(43.4167°N, 13.1333°E)
Time: 16:34:25
(UTC+00:00)

Cosmos 2154 Rocket - Pass Details

Date: 05 July 2020
Orbit: 967 x 995 km, 82.9° (Epoch: 11 August)

Event Time Altitude Azimuth Distance (km) Brightness Sun altitude
Exits shadow 21:23:05 33° 153° (SSE) 1,560 4.5 -19.3°
Maximum altitude 21:25:42 56° 92° (E) 1,139 4.2 -19.5°
Drops below altitude 10° 21:31:45 10° 16° (NNE) 2,722 7.0 -20.0°
Sets 21:34:19 0° 12° (NNE) 3,676 7.9 -20.2°
